GW2366 Weather Reports


Display with metric or nautical units.
time (UTC)temp
F
wind
direction
speed
MPH
gust
MPH
rain 1hr
in
rain 24hr
in
rain mn
in
humidity
%
barometer
mb
20260507051325 51 313 0.0 0.0 0.00 0.00 0.00 96 1018.3
20260507050822 52 313 0.0 0.0 0.00 0.00 0.00 96 1018.2
20260507050318 52 285 0.0 0.0 0.00 0.00 0.00 96 1018.3
20260507045815 52 284 0.0 0.0 0.00 0.00 0.00 96 1018.2
20260507045312 52 278 0.0 0.0 0.00 0.00 0.00 95 1018.2
20260507044809 52 277 0.0 1.0 0.00 0.00 0.00 95 1018.3
20260507044305 53 292 0.0 0.0 0.00 0.00 0.00 95 1018.3
20260507043801 53 296 0.0 0.0 0.00 0.00 0.00 95 1018.3
20260507043258 53 281 1.0 1.0 0.00 0.00 0.00 95 1018.1
20260507042755 53 282 0.0 0.0 0.00 0.00 0.00 94 1018.0
20260507042250 53 291 0.0 0.0 0.00 0.00 0.00 94 1018.2
20260507041748 53 281 1.0 1.0 0.00 0.00 0.00 93 1018.1
20260507041244 54 280 1.0 1.0 0.00 0.00 0.00 93 1018.0
20260507040741 54 299 1.0 1.0 0.00 0.00 0.00 92 1018.1
20260507040237 55 289 1.0 1.0 0.00 0.00 0.00 92 1018.0
20260507035733 55 290 1.0 1.0 0.00 0.00 0.00 92 1018.0
20260507035228 55 285 1.0 2.0 0.00 0.00 0.00 92 1018.1
20260507034721 56 287 2.0 2.0 0.00 0.00 0.00 91 1018.1
20260507034218 56 315 1.0 1.0 0.00 0.00 0.00 90 1018.1
20260507033716 57 291 0.0 0.0 0.00 0.00 0.00 89 1017.9
20260507033213 57 290 2.0 2.0 0.00 0.00 0.00 88 1018.1
20260507032710 57 261 1.0 1.0 0.00 0.00 0.00 87 1018.0
20260507032206 58 266 1.0 2.0 0.00 0.00 0.00 86 1018.0
20260507031703 58 275 1.0 1.0 0.00 0.00 0.00 86 1018.0
20260507031200 58 307 2.0 2.0 0.00 0.00 0.00 85 1018.0
20260507030656 59 315 1.0 1.0 0.00 0.00 0.00 85 1018.1
20260507030154 59 287 2.0 2.0 0.00 0.00 0.00 84 1017.9
20260507025651 59 309 1.0 2.0 0.00 0.00 0.00 84 1017.9
20260507025148 60 291 0.0 1.0 0.00 0.00 0.00 83 1017.9
20260507024646 60 255 1.0 3.0 0.00 0.00 0.00 82 1017.8
20260507024143 60 303 1.0 1.0 0.00 0.00 0.00 82 1017.9
20260507023638 60 278 1.0 1.0 0.00 0.00 0.00 81 1017.9
20260507023136 61 297 2.0 2.0 0.00 0.00 0.00 81 1017.7
20260507022633 61 216 2.0 2.0 0.00 0.00 0.00 81 1017.7
20260507022129 61 305 4.0 6.0 0.00 0.00 0.00 81 1017.7
20260507021625 61 207 2.0 3.0 0.00 0.00 0.00 81 1017.5
20260507021120 61 312 1.0 1.0 0.00 0.00 0.00 81 1017.8
20260507020619 61 295 1.0 2.0 0.00 0.00 0.00 80 1017.7
20260507020115 62 256 2.0 2.0 0.00 0.00 0.00 80 1018.0
20260507015614 62 305 1.0 3.0 0.00 0.00 0.00 79 1018.0
20260507015111 62 287 2.0 2.0 0.00 0.00 0.00 78 1018.1
20260507014607 61 296 2.0 2.0 0.00 0.00 0.00 81 1018.1
20260507014103 61 274 1.0 1.0 0.00 0.00 0.00 80 1018.3
20260507013600 61 241 1.0 2.0 0.00 0.00 0.00 80 1018.1
20260507013057 61 297 1.0 2.0 0.00 0.00 0.00 80 1018.2
20260507012554 61 301 2.0 3.0 0.00 0.00 0.00 80 1018.3
20260507012049 62 229 3.0 3.0 0.00 0.00 0.00 79 1018.2
20260507011547 62 259 2.0 2.0 0.00 0.00 0.00 79 1018.3
20260507011038 62 273 5.0 7.0 0.00 0.00 0.00 78 1018.2
20260507010532 62 247 2.0 2.0 0.00 0.00 0.00 80 1018.2
20260507010029 62 307 2.0 2.0 0.00 0.00 0.00 80 1018.4
20260507005527 62 246 6.0 7.0 0.00 0.00 0.00 79 1018.2
20260507005023 62 292 3.0 5.0 0.00 0.00 0.00 80 1018.3
20260507004520 62 247 3.0 3.0 0.00 0.00 0.00 79 1018.3
20260507004018 62 315 1.0 2.0 0.00 0.00 0.00 80 1018.4
20260507003513 62 301 2.0 2.0 0.00 0.00 0.00 80 1018.3
20260507003008 62 198 4.0 6.0 0.00 0.00 0.00 78 1018.2
20260507002505 63 251 3.0 3.0 0.00 0.00 0.00 79 1018.3
20260507002001 63 238 3.0 5.0 0.00 0.00 0.00 77 1018.2
20260507001457 63 305 2.0 3.0 0.00 0.00 0.00 79 1018.3
20260507000955 63 302 2.0 2.0 0.00 0.00 0.00 79 1018.5
20260507000451 63 288 2.0 3.0 0.00 0.00 0.00 78 1018.5
20260506235946 63 269 4.0 5.0 0.00 0.00 0.00 78 1018.3
20260506235444 64 305 4.0 7.0 0.00 0.00 0.00 77 1018.3
20260506234940 64 303 1.0 2.0 0.00 0.00 0.00 77 1018.4
20260506234437 65 235 2.0 2.0 0.00 0.00 0.00 75 1018.4
20260506233935 65 224 6.0 8.0 0.00 0.00 0.00 74 1018.5
20260506233431 66 248 1.0 2.0 0.00 0.00 0.00 75 1018.5
20260506232928 65 284 3.0 5.0 0.00 0.00 0.00 76 1018.5
20260506232424 65 300 2.0 3.0 0.00 0.00 0.00 75 1018.5
20260506231920 66 291 4.0 6.0 0.00 0.00 0.00 74 1018.6
20260506231418 66 288 3.0 3.0 0.00 0.00 0.00 75 1018.7
20260506230915 66 257 4.0 5.0 0.00 0.00 0.00 73 1018.7
20260506230411 68 199 5.0 6.0 0.00 0.00 0.00 70 1018.8
20260506225908 68 301 2.0 2.0 0.00 0.00 0.00 73 1018.8
20260506225405 68 309 2.0 3.0 0.00 0.00 0.00 72 1018.8
20260506224902 68 295 3.0 3.0 0.00 0.00 0.00 73 1018.8
20260506224359 67 258 3.0 3.0 0.00 0.00 0.00 73 1018.9
20260506223855 68 251 3.0 5.0 0.00 0.00 0.00 73 1018.9
20260506223351 68 260 2.0 2.0 0.00 0.00 0.00 72 1019.2
20260506222848 68 267 1.0 2.0 0.00 0.00 0.00 72 1019.2
20260506222344 68 240 3.0 5.0 0.00 0.00 0.00 71 1018.9
20260506221842 68 218 4.0 6.0 0.00 0.00 0.00 72 1019.1
20260506221339 68 268 3.0 3.0 0.00 0.00 0.00 72 1019.3
20260506220836 67 272 1.0 2.0 0.00 0.00 0.00 72 1019.2
20260506220332 67 279 2.0 3.0 0.00 0.00 0.00 73 1019.3
20260506215829 69 246 3.0 3.0 0.00 0.00 0.00 71 1019.4
20260506215324 69 235 3.0 3.0 0.00 0.00 0.00 73 1019.6
20260506214821 68 258 3.0 3.0 0.00 0.00 0.00 72 1019.6
20260506214317 69 323 3.0 3.0 0.00 0.00 0.00 72 1019.4
20260506213816 69 286 1.0 1.0 0.00 0.00 0.00 72 1019.6
20260506213313 69 271 4.0 6.0 0.00 0.00 0.00 69 1019.4
20260506212810 69 331 3.0 5.0 0.00 0.00 0.00 73 1019.4
20260506212307 69 304 1.0 1.0 0.00 0.00 0.00 71 1019.6
20260506211801 69 279 3.0 5.0 0.00 0.00 0.00 70 1019.6
20260506211257 69 281 3.0 3.0 0.00 0.00 0.00 73 1019.6
20260506210754 69 300 1.0 2.0 0.00 0.00 0.00 74 1019.6
20260506210251 69 269 1.0 2.0 0.00 0.00 0.00 73 1019.6
20260506205748 69 317 0.0 1.0 0.00 0.00 0.00 77 1019.7
20260506205244 69 300 2.0 2.0 0.00 0.00 0.00 73 1019.7
20260506204741 69 253 4.0 6.0 0.00 0.00 0.00 71 1019.7
20260506204239 69 274 1.0 1.0 0.00 0.00 0.00 74 1019.6
20260506203736 69 264 3.0 5.0 0.00 0.00 0.00 74 1019.7
20260506203233 70 305 2.0 2.0 0.00 0.00 0.00 72 1019.6
20260506202731 69 239 4.0 5.0 0.00 0.00 0.00 71 1019.9
20260506202227 70 272 4.0 5.0 0.00 0.00 0.00 70 1019.7
20260506201724 70 230 4.0 6.0 0.00 0.00 0.00 70 1019.8
20260506201220 69 252 1.0 2.0 0.00 0.00 0.00 74 1019.8
20260506200717 69 240 2.0 2.0 0.00 0.00 0.00 74 1019.8
20260506200214 69 236 2.0 3.0 0.00 0.00 0.00 74 1019.6
20260506195710 69 230 2.0 3.0 0.00 0.00 0.00 72 1019.8
20260506195207 69 255 1.0 1.0 0.00 0.00 0.00 74 1019.8
20260506194659 69 232 5.0 7.0 0.00 0.00 0.00 71 1020.1
20260506194155 66 240 3.0 3.0 0.00 0.00 0.00 78 1020.3
20260506193653 67 220 4.0 6.0 0.00 0.00 0.00 76 1019.9
20260506193149 67 309 2.0 2.0 0.00 0.00 0.00 79 1020.4
20260506192646 67 265 1.0 1.0 0.00 0.00 0.00 79 1020.3
20260506192142 68 290 0.0 1.0 0.00 0.00 0.00 76 1020.3
20260506191639 68 334 0.0 0.0 0.00 0.00 0.00 72 1020.1
20260506191135 69 327 1.0 2.0 0.00 0.00 0.00 74 1020.1
20260506190633 69 285 1.0 1.0 0.00 0.00 0.00 74 1020.5
20260506190130 68 287 0.0 0.0 0.00 0.00 0.00 74 1020.6
20260506185627 69 240 3.0 3.0 0.00 0.00 0.00 74 1020.4
20260506185123 68 247 2.0 2.0 0.00 0.00 0.00 76 1020.5
20260506184620 67 100 3.0 3.0 0.00 0.00 0.00 77 1020.5
20260506184117 68 150 3.0 3.0 0.00 0.00 0.00 76 1020.7
20260506183614 68 219 2.0 3.0 0.00 0.00 0.00 78 1020.8
20260506183110 67 15 1.0 1.0 0.00 0.00 0.00 79 1020.5
20260506182608 66 275 4.0 6.0 0.00 0.00 0.00 78 1020.6
20260506182105 66 186 2.0 2.0 0.00 0.00 0.00 78 1020.5
20260506181603 67 223 3.0 5.0 0.00 0.00 0.00 76 1020.5
20260506181059 67 285 1.0 2.0 0.00 0.00 0.00 77 1020.1
20260506180556 66 231 1.0 1.0 0.00 0.00 0.00 76 1020.1
20260506180052 66 32 1.0 2.0 0.00 0.00 0.00 78 1020.1
20260506175548 66 310 0.0 0.0 0.00 0.00 0.00 79 1020.4
20260506175045 66 278 1.0 1.0 0.00 0.00 0.00 79 1020.5
20260506174544 66 341 0.0 0.0 0.00 0.00 0.00 81 1020.5
20260506174039 65 258 3.0 3.0 0.00 0.00 0.00 78 1020.4
20260506173538 65 45 1.0 1.0 0.00 0.00 0.00 80 1020.4
20260506173034 65 306 0.0 0.0 0.00 0.00 0.00 81 1020.5
20260506172531 64 184 1.0 1.0 0.00 0.00 0.00 80 1020.4
20260506172027 63 339 0.0 0.0 0.00 0.00 0.00 82 1020.5
20260506171525 64 51 1.0 2.0 0.00 0.00 0.00 83 1020.1
20260506171022 64 330 0.0 0.0 0.00 0.00 0.00 80 1020.5
20260506170520 64 317 0.0 0.0 0.00 0.00 0.00 82 1020.3
20260506170012 62 339 0.0 1.0 0.00 0.00 0.00 82 1020.3
20260506165510 64 11 1.0 1.0 0.00 0.00 0.00 81 1020.6
20260506165006 62 2 0.0 0.0 0.00 0.00 0.00 83 1020.6
20260506164503 61 290 0.0 1.0 0.00 0.00 0.00 84 1020.6
20260506164000 60 65 2.0 2.0 0.00 0.00 0.00 85 1020.5
20260506163455 60 111 1.0 2.0 0.00 0.00 0.00 86 1020.5
20260506162949 59 357 0.0 1.0 0.00 0.00 0.00 88 1020.5
20260506162447 59 22 1.0 1.0 0.00 0.00 0.00 88 1020.4
20260506161939 59 97 1.0 2.0 0.00 0.00 0.00 87 1020.6
20260506161437 59 301 0.0 1.0 0.00 0.00 0.00 87 1020.6
20260506160929 59 339 0.0 0.0 0.00 0.00 0.00 89 1020.5
20260506160426 58 333 0.0 0.0 0.00 0.00 0.00 89 1020.5
20260506155923 58 17 0.0 0.0 0.00 0.00 0.00 91 1020.6
20260506155420 57 290 0.0 0.0 0.00 0.00 0.00 91 1020.6
20260506153537 57 319 0.0 0.0 0.00 0.00 0.00 91 1020.3
20260506153034 57 64 2.0 2.0 0.00 0.00 0.00 90 1020.4
20260506152531 58 86 2.0 2.0 0.00 0.00 0.00 89 1020.1
20260506152029 57 293 0.0 0.0 0.00 0.00 0.00 90 1020.3
20260506151526 57 288 0.0 0.0 0.00 0.00 0.00 92 1020.3
20260506151024 55 273 0.0 0.0 0.00 0.00 0.00 93 1020.3
20260506150520 55 1 0.0 0.0 0.00 0.00 0.00 94 1020.3
20260506150017 55 329 0.0 0.0 0.00 0.00 0.00 94 1020.1
20260506145514 54 326 0.0 0.0 0.00 0.00 0.00 96 1020.1
20260506145011 54 328 0.0 0.0 0.00 0.00 0.00 97 1020.1
20260506144508 54 306 0.0 0.0 0.00 0.00 0.00 98 1020.3
20260506144005 53 305 0.0 0.0 0.00 0.00 0.00 98 1020.1
20260506143502 53 279 0.0 0.0 0.00 0.00 0.00 99 1020.1
20260506143001 53 284 0.0 0.0 0.00 0.00 0.00 99 1020.0
20260506142458 53 282 0.0 0.0 0.00 0.00 0.00 99 1020.1
20260506141956 53 282 0.0 0.0 0.00 0.00 0.00 99 1019.9
20260506141454 53 319 0.0 0.0 0.00 0.00 0.00 99 1019.8
20260506140952 52 320 0.0 0.0 0.00 0.00 0.00 99 1019.8
20260506140449 52 320 0.0 0.0 0.00 0.00 0.00 99 1019.7
20260506135945 52 320 0.0 0.0 0.00 0.00 0.00 99 1019.8
20260506135443 52 319 0.0 0.0 0.00 0.00 0.00 99 1019.7
20260506134938 52 320 0.0 0.0 0.00 0.00 0.00 99 1019.8
20260506134435 52 320 0.0 0.0 0.00 0.00 0.00 99 1019.6
20260506133932 52 326 0.0 0.0 0.00 0.00 0.00 99 1019.7
20260506133429 52 326 0.0 0.0 0.00 0.00 0.00 99 1019.6
20260506132926 52 326 0.0 0.0 0.00 0.00 0.00 99 1019.7
20260506132423 52 332 0.0 0.0 0.00 0.00 0.00 99 1019.6
20260506131920 52 320 0.0 0.0 0.00 0.00 0.00 99 1019.7
20260506131417 52 320 0.0 0.0 0.00 0.00 0.00 99 1019.6
20260506130914 52 320 0.0 0.0 0.00 0.00 0.00 99 1019.7
20260506130410 52 348 0.0 0.0 0.00 0.00 0.00 99 1019.5
20260506125909 52 341 0.0 0.0 0.00 0.00 0.00 99 1019.4
20260506125406 52 341 0.0 0.0 0.00 0.00 0.00 99 1019.3
20260506124904 52 341 0.0 0.0 0.00 0.00 0.00 99 1019.2
20260506124401 52 341 0.0 0.0 0.00 0.00 0.00 99 1019.2
20260506123859 52 341 0.0 0.0 0.00 0.00 0.00 99 1019.2
20260506123357 52 341 0.0 0.0 0.00 0.00 0.00 99 1019.3
20260506122854 52 341 0.0 0.0 0.00 0.00 0.00 99 1019.3
20260506122350 52 341 0.0 0.0 0.00 0.00 0.00 99 1019.3
20260506121849 52 341 0.0 0.0 0.00 0.00 0.00 99 1019.2
20260506121346 52 341 0.0 0.0 0.00 0.00 0.00 99 1019.2
20260506120843 52 341 0.0 0.0 0.00 0.00 0.00 99 1019.3
20260506120340 52 341 0.0 0.0 0.00 0.00 0.00 99 1019.2
20260506115837 52 341 0.0 0.0 0.00 0.00 0.00 99 1019.2
20260506115336 52 341 0.0 0.0 0.00 0.00 0.00 99 1019.1
20260506114834 52 341 0.0 0.0 0.00 0.00 0.00 99 1019.1
20260506114331 52 341 0.0 0.0 0.00 0.00 0.00 99 1019.0
20260506113830 52 341 0.0 0.0 0.00 0.00 0.00 99 1019.0
20260506113327 52 341 0.0 0.0 0.00 0.00 0.00 99 1019.2
20260506112823 52 341 0.0 0.0 0.00 0.00 0.00 99 1019.2
20260506112320 52 341 0.0 0.0 0.00 0.00 0.00 99 1019.1
20260506111818 51 341 0.0 0.0 0.00 0.00 0.00 99 1019.0
20260506111316 51 341 0.0 0.0 0.00 0.00 0.00 99 1019.0
20260506110813 51 341 0.0 0.0 0.00 0.00 0.00 99 1018.9
20260506110310 51 341 0.0 0.0 0.00 0.00 0.00 99 1018.9
20260506105806 51 341 0.0 0.0 0.00 0.00 0.00 99 1018.9
20260506105305 52 341 0.0 0.0 0.00 0.00 0.00 99 1018.8
20260506104801 52 341 0.0 0.0 0.00 0.00 0.00 99 1018.9
20260506104258 52 341 0.0 0.0 0.00 0.00 0.00 99 1018.9
20260506103756 52 341 0.0 0.0 0.00 0.00 0.00 99 1018.8
20260506103253 52 341 0.0 0.0 0.00 0.00 0.00 99 1018.5
20260506102750 52 341 0.0 0.0 0.00 0.00 0.00 99 1018.6
20260506102248 52 341 0.0 0.0 0.00 0.00 0.00 99 1018.7
20260506101745 52 341 0.0 0.0 0.00 0.00 0.00 99 1018.7
20260506101241 52 341 0.0 0.0 0.00 0.00 0.00 99 1018.5
20260506100740 51 341 0.0 0.0 0.00 0.00 0.00 99 1018.7
20260506100237 52 341 0.0 0.0 0.00 0.00 0.00 99 1018.4
20260506095736 52 341 0.0 0.0 0.00 0.00 0.00 99 1018.3
20260506095232 52 341 0.0 0.0 0.00 0.00 0.00 99 1018.3
20260506094729 52 341 0.0 0.0 0.00 0.00 0.00 99 1018.6
20260506094227 52 341 0.0 0.0 0.00 0.00 0.00 99 1018.5
20260506093726 51 341 0.0 0.0 0.00 0.00 0.00 99 1018.5
20260506093222 51 341 0.0 0.0 0.00 0.00 0.00 99 1018.3
20260506092720 51 341 0.0 0.0 0.00 0.00 0.00 99 1018.5
20260506092218 51 341 0.0 0.0 0.00 0.00 0.00 99 1018.7
20260506091715 51 341 0.0 0.0 0.00 0.00 0.00 99 1018.4
20260506091212 51 341 0.0 0.0 0.00 0.00 0.00 99 1018.5
20260506090710 51 341 0.0 0.0 0.00 0.00 0.00 99 1018.5
20260506090207 51 341 0.0 0.0 0.00 0.00 0.00 99 1018.4
20260506085704 51 341 0.0 0.0 0.00 0.00 0.00 99 1018.5
20260506085200 51 341 0.0 0.0 0.00 0.00 0.00 99 1018.7
20260506084656 51 342 0.0 0.0 0.00 0.00 0.00 99 1018.6
20260506084153 51 342 0.0 0.0 0.00 0.00 0.00 99 1018.7
20260506083650 51 342 0.0 0.0 0.00 0.00 0.00 99 1018.6
20260506083148 51 342 0.0 0.0 0.00 0.00 0.00 99 1018.7
20260506082644 51 346 0.0 0.0 0.00 0.00 0.00 99 1018.7
20260506082139 51 277 0.0 0.0 0.00 0.00 0.00 99 1018.6
20260506081638 51 277 0.0 0.0 0.00 0.00 0.00 99 1018.5
20260506081135 51 278 0.0 1.0 0.00 0.00 0.00 99 1018.5
20260506080632 51 280 0.0 0.0 0.00 0.00 0.00 99 1018.5
20260506080129 51 279 0.0 0.0 0.00 0.00 0.00 99 1018.4
20260506073113 51 296 0.0 0.0 0.00 0.00 0.00 99 1018.1
20260506072609 51 285 0.0 0.0 0.00 0.00 0.00 99 1018.2
20260506072108 51 291 1.0 1.0 0.00 0.00 0.00 99 1018.2
20260506071605 51 294 0.0 0.0 0.00 0.00 0.00 99 1018.2
20260506071102 50 309 0.0 0.0 0.00 0.00 0.00 99 1018.1
20260506070559 50 309 0.0 0.0 0.00 0.00 0.00 99 1018.1
20260506062034 51 246 2.0 2.0 0.00 0.03 0.03 99 1017.9
20260506061529 51 282 1.0 1.0 0.00 0.03 0.03 99 1017.7
20260506061027 51 306 0.0 1.0 0.00 0.03 0.03 99 1017.9
20260506060526 51 280 1.0 1.0 0.00 0.03 0.03 99 1017.6